Home > Weather > Belo Horizonte > Past weeks

Flag for Brazil Past Weather in Belo Horizonte, Minas Gerais, Brazil — Yesterday and Last 2 Weeks

Now
77 °F

Passing clouds.


Feels Like: 78 °F
Forecast: 55 / 80 °F
Wind: 7 mph from North

Location: Belo Horizonte Airport

Current Time: Jul 26, 2016 at 1:22:27 PM

Latest Report: Jul 26, 2016 at 1:00 PM


Visibility: N/A

Pressure: 30.15 "Hg (27.32 "Hg at 860m altitude)

Humidity: 39%

Dew Point: 50 °F

Location of Belo HorizonteLocation

Past Weather in Belo Horizonte — Graph

°F

Belo Horizonte Temperature Yesterday

Maximum temperature yesterday: 79 °F (at 12:00 PM)
Minimum temperature yesterday: 55 °F (at 4:00 AM)
Average temperature yesterday: 67 °F

High & Low Weather Summary for the Past Weeks

 TemperatureHumidityPressure
High86 °F (Jul 16, 2:00 PM)94% (Jul 14, 7:00 AM)30.33 "Hg (Jul 14, 7:00 AM)
Low46 °F (Jul 18, 6:00 AM)16% (Jul 18, 4:00 PM)29.98 "Hg (Jul 16, 3:00 PM)
Average67 °F59%30.14 "Hg
* Reported Jul 11 12:00 PM — Jul 26 12:00 PM, Belo Horizonte, Weather by CustomWeather, © 2016

Note: Actual official high and low records may vary slightly from our data, if they occured in-between our weather recording intervals... More about our weather records

Advertising

Belo Horizonte Weather History for the Previous 24 Hours

Scroll right to see more
 ConditionsComfort  
Time TempWeatherWind HumidityBarometerVisibility
12:00 PM
Tue, Jul 26
75 °FSunny.10 mph41%30.18 "Hg10 mi
11:00 AM73 °FSunny.9 mph47%30.24 "Hg10 mi
10:00 AM70 °FSunny.9 mph53%30.24 "Hg10 mi
9:00 AM64 °FSunny.6 mph68%30.24 "Hg10 mi
8:00 AM57 °FSunny.5 mph77%30.21 "Hg10 mi
7:00 AM57 °FSunny.3 mph77%30.21 "Hg10 mi
6:00 AM55 °FClear.2 mph77%30.18 "Hg10 mi
5:00 AM57 °FClear.3 mph77%30.18 "Hg10 mi
4:00 AM59 °FClear.2 mph72%30.21 "Hg10 mi
3:00 AM59 °FClear.3 mph72%30.21 "Hg10 mi
2:00 AM61 °FClear.2 mph68%30.21 "Hg10 mi
1:00 AM61 °FClear.2 mph68%30.21 "Hg10 mi
12:00 AM61 °FClear.1 mph68%30.21 "Hg10 mi
11:00 PM
Mon, Jul 25
64 °FClear.1 mph60%30.21 "Hg10 mi
10:00 PM66 °FClear.6 mph56%30.21 "Hg10 mi
9:00 PM68 °FClear.10 mph53%30.21 "Hg10 mi
8:00 PM68 °FClear.8 mph53%30.18 "Hg10 mi
7:00 PM70 °FClear.7 mph46%30.18 "Hg10 mi
6:00 PM73 °FClear.8 mph41%30.18 "Hg10 mi
5:00 PM75 °FSunny.9 mph41%30.15 "Hg10 mi
4:00 PM79 °FSunny.9 mph37%30.15 "Hg10 mi
3:00 PM77 °FPassing clouds.9 mph36%30.15 "HgN/A
2:00 PM79 °FPassing clouds.6 mph32%30.15 "HgN/A
1:00 PM77 °FPassing clouds.6 mph32%30.18 "HgN/A
Weather by CustomWeather, © 2016

See weather overviewHow to use our weather pages